Weather History for Port Angeles, WA

Change the Weather History Date:

Tuesday, January 24, 2012

  Actual Average Record
Temperature  
Mean Temperature 42 °F -  
Max Temperature 48 °F 46 °F 60 °F (1951)
Min Temperature 35 °F 34 °F 9 °F (1950)
Degree Days  
Heating Degree Days 24    
Moisture  
Dew Point 37 °F    
Average Humidity 87    
Maximum Humidity 93    
Minimum Humidity 76    
Precipitation  
Precipitation 0.13 in - - ()
Sea Level Pressure  
Sea Level Pressure 29.75 in    
Wind  
Wind Speed 3 mph (SW)    
Max Wind Speed 14 mph    
Max Gust Speed 29 mph    
Visibility 9 miles    
Events Rain    
Averages and records for this station are not official NWS values.
T = Trace of Precipitation, MM = Missing Value Source: NWS Daily Summary

Daily Weather History Graph

Daily Weather History Graph

Search for Another Location

Airport:

Trip Planner

Search our weather history database for the weather conditions in past years. The results will help you decide how hot, cold, wet, or windy it might be!

Date:

Astronomy

Jan. 24, 2012 Rise Set
Actual Time 7:51 AM PST 5:00 PM PST
Civil Twilight 7:17 AM PST 5:34 PM PST
Nautical Twilight 6:39 AM PST 6:12 PM PST
Astronomical Twilight 6:02 AM PST 6:49 PM PST
Moon 8:13 AM PST (1/24) 7:10 PM PST (1/24)
Length of Visible Light 10h 17m
Length of Day
9h 08m
Waxing Crescent, 3% of the Moon is Illuminated
Jan 24
Waxing Crescent
Jan 30
First Quarter
Feb 7
Full
Feb 14
Last Quarter
Feb 21
New

Hourly Weather History & Observations

Time (PST) Temp. Windchill Dew Point Humidity Pressure Visibility Wind Dir Wind Speed Gust Speed Precip Events Conditions
12:53 AM 35.1 °F 31.0 °F 30.9 °F 85% 29.93 in 10.0 mi WSW 4.6 mph - N/A   Overcast
1:53 AM 36.0 °F 30.3 °F 30.9 °F 82% 29.93 in 10.0 mi South 6.9 mph - N/A   Overcast
2:49 AM 37.4 °F - 33.8 °F 87% 29.92 in 10.0 mi Calm Calm - N/A   Overcast
2:53 AM 37.9 °F - 33.1 °F 83% 29.92 in 10.0 mi Calm Calm - N/A   Overcast
3:04 AM 37.4 °F - 33.8 °F 87% 29.91 in 10.0 mi Calm Calm - N/A   Overcast
3:53 AM 37.9 °F - 35.1 °F 89% 29.92 in 10.0 mi Calm Calm - N/A   Overcast
4:13 AM 39.2 °F 37.0 °F 35.6 °F 87% 29.90 in 10.0 mi West 3.5 mph - N/A   Overcast
4:15 AM 37.4 °F - 35.6 °F 93% 29.90 in 10.0 mi Calm Calm - N/A   Overcast
4:53 AM 41.0 °F - 37.0 °F 86% 29.88 in 10.0 mi Calm Calm - 0.00 in Rain Light Rain
5:01 AM 41.0 °F - 35.6 °F 81% 29.87 in 10.0 mi Calm Calm - 0.00 in Rain Light Rain
5:12 AM 42.8 °F 41.1 °F 35.6 °F 76% 29.85 in 10.0 mi Variable 3.5 mph - 0.00 in   Overcast
5:25 AM 41.0 °F - 37.4 °F 87% 29.83 in 10.0 mi Calm Calm - 0.00 in   Overcast
5:53 AM 37.4 °F 32.1 °F 35.6 °F 93% 29.82 in 10.0 mi SW 6.9 mph - N/A   Mostly Cloudy
6:53 AM 39.0 °F 34.0 °F 36.0 °F 89% 29.78 in 10.0 mi West 6.9 mph - N/A   Overcast
7:53 AM 37.9 °F 33.5 °F 35.1 °F 89% 29.76 in 10.0 mi WSW 5.8 mph - N/A   Overcast
8:53 AM 39.9 °F 37.8 °F 36.0 °F 86% 29.74 in 10.0 mi West 3.5 mph - N/A   Mostly Cloudy
9:53 AM 39.9 °F 33.9 °F 37.0 °F 89% 29.73 in 10.0 mi West 9.2 mph - N/A   Partly Cloudy
10:53 AM 42.1 °F - 37.9 °F 85% 29.67 in 10.0 mi Calm Calm - N/A   Clear
11:53 AM 43.0 °F 39.5 °F 37.9 °F 82% 29.64 in 10.0 mi West 5.8 mph - N/A   Mostly Cloudy
12:53 PM 42.8 °F - 37.4 °F 81% 29.59 in 10.0 mi Calm Calm - N/A   Mostly Cloudy
1:53 PM 41.0 °F 35.8 °F 37.9 °F 89% 29.52 in 3.0 mi SSE 8.1 mph - 0.04 in Rain Light Rain
2:53 PM 43.0 °F - 39.9 °F 89% 29.51 in 10.0 mi Calm Calm - 0.03 in Rain Light Rain
3:53 PM 43.0 °F - 39.9 °F 89% 29.51 in 6.0 mi Calm Calm - 0.01 in Rain Light Rain
4:53 PM 43.0 °F 41.3 °F 39.9 °F 89% 29.53 in 10.0 mi South 3.5 mph - 0.00 in Rain Light Rain
5:53 PM 43.0 °F 41.3 °F 41.0 °F 93% 29.57 in 8.0 mi South 3.5 mph - 0.01 in Rain Light Rain
6:53 PM 43.0 °F - 41.0 °F 93% 29.59 in 9.0 mi Calm Calm - 0.00 in Rain Light Rain
7:53 PM 44.6 °F - 42.8 °F 93% 29.60 in 10.0 mi Calm Calm - N/A   Overcast
8:53 PM 43.0 °F 41.3 °F 41.0 °F 93% 29.65 in 10.0 mi South 3.5 mph - 0.00 in Rain Light Rain
9:53 PM 48.0 °F - 42.1 °F 80% 29.74 in 10.0 mi Variable 5.8 mph 21.9 mph 0.01 in   Overcast
10:53 PM 45.0 °F 38.5 °F 41.0 °F 86% 29.82 in 3.0 mi West 13.8 mph 28.8 mph 0.03 in Rain Rain
11:53 PM 45.0 °F 38.9 °F 37.9 °F 76% 29.87 in 10.0 mi West 12.7 mph 26.5 mph 0.00 in Rain Light Rain